Theta_e
353 347 344 341 340 336 332 329 326 326 327 324 322 321 320 318 318 319 320 320 319 317
352 349 347 346 339 331 326 324 322 321 320 320 318 317 317 317 315 316 318 318 317 316
349 345 333 331 326 322 321 319 318 317 316 315 315 317 315 314 314 316 316 315 315 315
334 330 326 320 319 317 317 316 315 315 314 314 314 315 314 312 312 313 313 314 313 313
325 321 318 317 315 314 313 313 313 314 313 311 311 311 309 310 310 310 310 311 311 310
318 316 315 313 313 313 312 312 312 313 312 311 309 307 306 308 309 311 311 311 310 310
313 313 313 312 312 312 314 313 313 313 311 305 302 300 300 301 303 305 309 310 311 310
312 312 312 313 314 314 313 311 313 309 303 300 298 297 297 298 300 303 308 309 307 308
310 311 311 311 312 311 310 311 308 305 302 300 296 295 295 297 299 305 306 305 304 304
308 307 307 308 307 307 307 307 307 306 301 296 295 295 295 296 299 305 306 305 304 302
306 304 305 306 306 308 309 309 308 306 302 298 296 295 294 296 303 305 307 305 304 301
309 309 309 308 308 308 308 306 304 304 303 299 296 295 294 296 301 301 305 305 299 298
312 310 308 307 306 306 306 304 304 303 303 301 297 293 294 294 297 296 299 300 297 296
307 305 305 306 307 307 304 306 305 304 303 301 300 295 294 294 294 293 296 299 298 298
Wind_Speed
14 9 10 10 8 6 6 6 8 6 7 6 6 5 4 3 7 6 4 4 2 3
7 9 7 8 9 9 11 8 9 8 8 6 6 6 5 4 5 6 6 6 7 5
8 11 12 12 13 13 11 12 11 9 8 7 7 7 8 5 5 6 4 5 6 5
14 15 14 13 12 13 13 12 10 8 6 5 6 6 6 6 6 5 4 5 7 7
14 14 14 14 14 13 13 11 9 6 5 7 7 7 6 5 6 7 6 5 5 7
15 15 15 15 14 11 10 9 8 9 8 10 7 8 10 10 10 7 5 6 5 6
14 14 14 12 12 11 10 10 9 8 9 11 10 10 10 10 9 8 6 6 6 7
14 14 14 12 10 11 10 9 9 9 12 9 9 8 11 9 8 7 7 9 10 10
15 15 14 12 11 11 9 8 9 11 10 9 8 11 11 8 6 7 7 8 8 9
14 14 13 11 11 9 7 7 8 11 11 9 9 12 11 10 5 5 3 4 3 6
14 14 12 12 10 7 7 8 8 12 11 8 9 11 14 14 4 6 2 5 4 6
13 13 12 11 10 8 7 9 9 10 9 8 7 13 17 14 9 10 8 5 9 6
13 12 11 10 10 6 7 7 8 9 8 9 6 7 12 13 8 9 9 9 5 4
12 11 10 8 6 6 8 8 7 7 6 8 5 6 9 10 8 6 7 7 6 7
Wind_Direction
131 134 136 151 153 143 110 88 104 107 92 81 73 68 44 37 41 35 13 15 349 336
129 124 98 101 106 91 104 111 90 83 75 54 46 29 52 78 58 27 351 347 16 346
126 98 99 96 96 99 99 96 90 77 69 70 56 40 34 32 45 33 4 7 343 347
92 95 90 94 101 101 101 105 103 104 111 96 79 56 31 8 49 33 354 7 355 338
96 98 101 108 106 107 106 108 119 120 103 79 71 63 41 15 37 24 344 1 346 342
105 106 109 109 110 108 98 88 89 86 78 73 53 33 25 18 17 2 346 354 340 338
105 110 105 100 99 103 110 104 98 91 78 62 47 34 26 18 3 356 345 328 340 14
102 101 103 99 106 106 97 101 96 91 81 67 48 27 17 4 339 331 351 18 20 28
104 101 101 103 98 97 95 88 87 83 72 55 46 14 16 356 336 317 34 29 24 338
99 95 94 99 96 94 90 105 99 100 84 63 36 3 357 350 308 314 49 83 37 353
100 99 99 96 98 99 105 104 95 93 87 66 39 10 6 347 264 255 95 95 41 26
123 123 118 119 123 108 104 93 85 93 93 79 31 15 14 4 16 359 357 106 59 39
115 111 114 113 116 118 110 111 103 99 97 104 69 17 22 14 30 1 341 100 119 81
92 101 99 106 113 109 98 103 94 112 120 89 96 45 37 19 20 5 341 6 33 13